{"data":{"norad_id":55034,"epoch":"2026-09-21T17:17:55.161312Z","epoch_age_seconds":59387,"freshness":"FRESH","line1":"1 55034U 23001AB  26264.72077733  .00004770  00000+0  14462-3 0  9996","line2":"2 55034  97.3097 322.7488 0009303 126.3968 233.8135 15.34569235206622","mean_motion":15.34569235,"eccentricity":0.0009303,"inclination_deg":97.3097,"raan_deg":322.7488,"arg_perigee_deg":126.3968,"mean_anomaly_deg":233.8135,"bstar":0.00014462,"rev_number":20662,"period_min":93.83740838516201,"perigee_km":455.83671857401,"apogee_km":468.56385012527,"semimajor_km":6840.3372843496,"source":"CELESTRAK","updated_at":"2026-09-22T09:00:25.265746Z"}}